Kugluktuk,

5:15 AM MDT on May 20, 2018 (GMT -0600)
Kugluktuk

Weather History for CYCO - December, 2012

Change the Weather History Date:

Tuesday, December 18, 2012

  Actual Average Record
Temperature  
Mean Temperature -8 °F -  
Max Temperature -4 °F -5 °F 17 °F (2002)
Min Temperature -12 °F -17 °F -40 °F (2015)
Degree Days  
Heating Degree Days 73    
Moisture  
Dew Point -13 °F    
Average Humidity 73    
Maximum Humidity 84    
Minimum Humidity 59    
Precipitation  
Precipitation 0.00 in - - ()
Sea Level Pressure  
Sea Level Pressure 29.74 in    
Wind  
Wind Speed 13 mph ()    
Max Wind Speed 23 mph    
Max Gust Speed 32 mph    
Visibility 9.0 miles    
Events Snow    
Averages and records for this station are not official NWS values.
T = Trace of Precipitation, MM = Missing Value Source: Averaged Metar Reports

Daily Weather History Graph

Daily Weather History Graph

Search for Another Location

Airport or City:

Astronomy

Dec. 18, 2012 Rise Set
Actual Time 12:05 PM MST 1:10 PM MST
Civil Twilight 9:55 AM MST 3:19 PM MST
Nautical Twilight 8:27 AM MST 4:47 PM MST
Astronomical Twilight 7:16 AM MST 5:58 PM MST
Moon 12:01 PM MST (12/18) 11:41 PM MST (12/18)
Length of Visible Light 5h 24m
Length of Day
1h 04m
Waxing Crescent, 35% of the Moon is Illuminated
Dec 18
Waxing Crescent
Dec 19
First Quarter
Dec 28
Full
Jan 4
Last Quarter
Jan 11
New

Hourly Weather History & Observations

Time (MST) Temp. Windchill Dew Point Humidity Pressure Visibility Wind Dir Wind Speed Gust Speed Precip Events Conditions
12:00 AM -5.8 °F -22.4 °F -9.4 °F 84% 29.63 in 12.0 mi WSW 9.2 mph - N/A   Overcast
1:00 AM -7.6 °F -22.1 °F -13.0 °F 77% 29.64 in 12.0 mi WSW 6.9 mph - N/A   Scattered Clouds
2:00 AM -7.6 °F -23.4 °F -13.0 °F 77% 29.65 in 12.0 mi WSW 8.1 mph - N/A   Scattered Clouds
3:00 AM -4.0 °F -22.1 °F -9.4 °F 78% 29.66 in 12.0 mi WSW 11.5 mph - N/A Snow Low Drifting Snow
3:20 AM - - - N/A% - 12.0 mi SW 12.7 mph - N/A   Unknown
4:00 AM -4.0 °F -23.7 °F -11.2 °F 71% 29.66 in 12.0 mi SW 13.8 mph - N/A Snow Light Snow
5:00 AM -5 °F - -11 °F 65% 29.66 in 12 mi WSW 18.4 mph - - Snow Light Snow
5:00 AM -5.8 °F -28.8 °F -11.2 °F 77% 29.66 in 12.0 mi WSW 18.4 mph - N/A Snow Light Snow
6:00 AM -5.8 °F -27.5 °F -9.4 °F 84% 29.67 in 12.0 mi WSW 16.1 mph - N/A Snow Light Snow
7:00 AM -5.8 °F -28.2 °F -13.0 °F 71% 29.68 in 12.0 mi WSW 17.3 mph - N/A Snow Light Snow
7:38 AM - - - N/A% - 12.0 mi WSW 12.7 mph 18.4 mph N/A   Unknown
8:00 AM -7.6 °F -27.5 °F -16.6 °F 65% 29.68 in 12.0 mi WSW 12.7 mph 18.4 mph N/A Snow Low Drifting Snow
9:00 AM -9.4 °F -32.1 °F -16.6 °F 71% 29.69 in 10.0 mi SW 16.1 mph 23.0 mph N/A Snow Low Drifting Snow
10:00 AM -9.4 °F -33.5 °F -14.8 °F 77% 29.70 in 10.0 mi SW 18.4 mph - N/A Snow Low Drifting Snow
11:00 AM -9 °F - -15 °F 62% 29.70 in 10 mi SW 19.6 mph - - Snow Snow
11:00 AM -9.4 °F -33.5 °F -14.8 °F 77% 29.70 in 10.0 mi SW 18.4 mph 25.3 mph N/A Snow Low Drifting Snow
12:00 PM -5.8 °F -29.4 °F -13.0 °F 71% 29.72 in 12.0 mi SW 19.6 mph 26.5 mph N/A Snow Low Drifting Snow
12:34 PM - - - N/A% - 3.0 mi SW 19.6 mph 27.6 mph N/A   Ice Crystals
12:39 PM - - - N/A% - 2.0 mi SW 21.9 mph 29.9 mph N/A   Ice Crystals
12:49 PM - - - N/A% - 1.0 mi SW 23.0 mph 32.2 mph N/A   Ice Crystals
1:00 PM -5.8 °F -29.4 °F -11.2 °F 77% 29.72 in 2.0 mi SW 19.6 mph 29.9 mph N/A Snow Ice Crystals
1:21 PM - - - N/A% - 4.0 mi SW 18.4 mph 25.3 mph N/A   Ice Crystals
2:00 PM -5.8 °F -27.5 °F -11.2 °F 77% 29.75 in 5.0 mi SW 16.1 mph 23.0 mph N/A Snow Ice Crystals
3:00 PM -5.8 °F -29.4 °F -9.4 °F 84% 29.76 in 5.0 mi SW 19.6 mph 26.5 mph N/A Snow Ice Crystals
4:00 PM -5.8 °F -28.8 °F -13.0 °F 71% 29.78 in 5.0 mi WSW 18.4 mph 25.3 mph N/A Snow Ice Crystals
5:00 PM -8 °F - -14 °F 65% 29.80 in 4 mi SW 19.6 mph - - Snow Snow
5:00 PM -7.6 °F -31.1 °F -13.0 °F 77% 29.80 in 5.0 mi SW 18.4 mph 25.3 mph N/A Snow Ice Crystals
6:00 PM -7.6 °F -32.3 °F -14.8 °F 71% 29.83 in 6.0 mi SW 20.7 mph - N/A Snow Ice Crystals
7:00 PM -7.6 °F -32.3 °F -13.0 °F 77% 29.85 in 5.0 mi SW 20.7 mph 28.8 mph N/A Snow Ice Crystals
8:00 PM -7.6 °F -31.1 °F -13.0 °F 77% 29.86 in 6.0 mi WSW 18.4 mph 25.3 mph N/A Snow Ice Crystals
9:00 PM -9.4 °F -30.6 °F -16.6 °F 71% 29.88 in 12.0 mi SW 13.8 mph 19.6 mph N/A Snow Low Drifting Snow
10:00 PM -11.2 °F -29.0 °F -18.4 °F 70% 29.90 in 15.0 mi SW 9.2 mph - N/A   Partly Cloudy
11:00 PM -12 °F - -19 °F 59% 29.91 in 15 mi WSW 12.7 mph - - Snow Snow
11:00 PM -11.2 °F -32.1 °F -18.4 °F 70% 29.91 in 15.0 mi WSW 12.7 mph - N/A Snow Low Drifting Snow